Date String (YYYY-MM-DD hh:mm:ss) UTC,Instrument flags,absolute air pressure of the measurement (hPa),sample flow rate (lpm),inlet stack bypass flow (lpm),air temperature of the measurement (°C),ambient temperature measured by the external sensor (°C),aerosol sample conditioner tube jacket temperature (°C),OPC LED temperature (°C),internal box temperature (°C),relative humidity of the measurement (%),span deviation,mass concentration of particles derived from Lorenz-Mie calculation of OPC scattering (μg/m³),mass concentration of particles derived from Lorenz-Mie calculation of OPC scattering (μg/m³),mass concentration of particles derived from Lorenz-Mie calculation of OPC scattering (μg/m³)
DateTimeUTC,F1_M11,P_M11,Q1_M11,Q2_M11,T1_M11,T2_M11,T3_M11,T4_M11,T5_M11,U1_M11,ZSPAN_M11,X0_M11,X2_M11,X1_M11
2024-05-12 03:00:00,SystemResetWarning,0824.9,5.00,000.00,024.2,022.0,000.0,032.9,025.4,024.2,0000.0,0011.00,0003.62,0002.87
2024-05-12 03:01:00,SystemResetWarning,0825.0,4.99,000.00,024.2,022.3,000.0,032.8,025.6,024.7,0000.0,0010.80,0003.59,0002.85
2024-05-12 03:02:00,SystemResetWarning,0825.0,5.01,000.00,024.3,022.7,000.0,032.7,025.8,025.0,0000.0,0010.64,0003.58,0002.84
2024-05-12 03:03:00,SystemResetWarning,0825.1,5.00,000.00,024.3,023.0,000.0,032.7,026.0,025.2,0000.0,0010.80,0003.59,0002.83
2024-05-12 03:04:00,SystemResetWarning,0825.1,4.99,000.00,024.4,023.3,000.0,032.7,026.1,025.4,0000.0,0010.71,0003.58,0002.81
2024-05-12 03:05:00,SystemResetWarning,0825.1,5.00,000.00,024.4,023.5,000.0,032.7,026.2,025.5,0000.0,0010.54,0003.63,0002.82
2024-05-12 03:06:00,SystemResetWarning,0825.1,5.00,000.00,024.5,023.7,000.0,032.7,026.3,025.7,0000.0,0010.63,0003.67,0002.85
2024-05-12 03:07:00,SystemResetWarning,0825.1,4.99,000.00,024.5,023.9,000.0,032.7,026.4,025.8,0000.0,0011.38,0003.70,0002.90
2024-05-12 03:08:00,SystemResetWarning,0825.1,4.99,000.00,024.6,024.0,000.0,032.7,026.4,025.7,0000.0,0011.00,0003.76,0002.92
2024-05-12 03:09:00,SystemResetWarning,0825.2,5.00,000.00,024.6,024.1,000.0,032.7,026.5,025.7,0000.0,0011.55,0003.80,0002.96
2024-05-12 03:10:00,SystemResetWarning,0825.1,5.00,000.00,024.7,024.2,000.0,032.8,026.6,025.6,0000.0,0011.54,0003.83,0002.99
2024-05-12 03:11:00,SystemResetWarning,0825.1,5.01,000.00,024.7,024.3,000.0,032.8,026.6,025.5,0000.0,0011.40,0003.81,0003.01
2024-05-12 03:12:00,SystemResetWarning,0825.1,5.00,000.00,024.8,024.4,000.0,032.9,026.7,025.5,0000.0,0011.75,0003.80,0003.02
2024-05-12 03:13:00,SystemResetWarning,0825.1,5.00,000.00,024.9,024.5,000.0,032.9,026.7,025.6,0000.0,0012.03,0003.79,0003.03
2024-05-12 03:14:00,SystemResetWarning,0825.2,4.99,000.00,024.9,024.2,000.0,033.0,026.5,025.6,0000.0,0012.03,0003.80,0003.05
2024-05-12 03:15:00,SystemResetWarning,0825.1,5.00,000.00,024.5,022.2,000.0,033.0,025.5,026.0,0000.0,0012.35,0003.81,0003.05
2024-05-12 03:16:00,SystemResetWarning,0825.1,5.02,000.00,024.2,021.6,000.0,033.0,025.1,026.7,0000.0,0012.40,0003.81,0003.06
2024-05-12 03:17:00,SystemResetWarning,0825.2,4.99,000.00,024.1,021.9,000.0,032.9,025.2,026.9,0000.0,0012.48,0003.81,0003.05
2024-05-12 03:18:00,SystemResetWarning,0825.2,4.99,000.00,024.1,022.2,000.0,032.8,025.5,026.8,0000.0,0011.96,0003.80,0003.04
2024-05-12 03:19:00,SystemResetWarning,0825.3,5.00,000.00,024.2,022.6,000.0,032.7,025.6,026.8,0000.0,0011.82,0003.80,0003.05
2024-05-12 03:20:00,SystemResetWarning,0825.3,5.01,000.00,024.2,022.9,000.0,032.7,025.8,026.7,0000.0,0011.11,0003.78,0003.06
2024-05-12 03:21:00,SystemResetWarning,0825.3,5.01,000.00,024.3,023.2,000.0,032.6,026.0,026.2,0000.0,0010.60,0003.74,0003.05
2024-05-12 03:22:00,SystemResetWarning,0825.2,4.99,000.00,024.3,023.4,000.0,032.6,026.1,026.1,0000.0,0010.59,0003.73,0003.04
2024-05-12 03:23:00,SystemResetWarning,0825.3,4.99,000.00,024.3,023.6,000.0,032.7,026.2,026.0,0000.0,0010.39,0003.76,0003.02
2024-05-12 03:24:00,SystemResetWarning,0825.2,5.00,000.00,024.4,023.7,000.0,032.7,026.3,026.0,0000.0,0009.70,0003.75,0002.99
2024-05-12 03:25:00,SystemResetWarning,0825.3,5.01,000.00,024.4,023.9,000.0,032.7,026.3,025.9,0000.0,0009.91,0003.72,0002.95
2024-05-12 03:26:00,SystemResetWarning,0825.3,5.00,000.00,024.5,024.0,000.0,032.7,026.4,026.0,0000.0,0009.99,0003.68,0002.93
2024-05-12 03:27:00,SystemResetWarning,0825.3,4.99,000.00,024.6,024.1,000.0,032.7,026.4,026.0,0000.0,0009.96,0003.65,0002.93
2024-05-12 03:28:00,SystemResetWarning,0825.3,4.99,000.00,024.6,024.2,000.0,032.8,026.5,025.9,0000.0,0010.11,0003.59,0002.93
2024-05-12 03:29:00,SystemResetWarning,0825.3,5.01,000.00,024.7,024.2,000.0,032.8,026.6,025.8,0000.0,0010.21,0003.53,0002.91
2024-05-12 03:30:00,SystemResetWarning,0825.3,5.00,000.00,024.7,024.3,000.0,032.8,026.6,025.7,0000.0,0009.63,0003.50,0002.88
2024-05-12 03:31:00,SystemResetWarning,0825.3,5.00,000.00,024.8,024.4,000.0,032.9,026.7,025.5,0000.0,0009.38,0003.48,0002.86
2024-05-12 03:32:00,SystemResetWarning,0825.3,5.00,000.00,024.8,024.5,000.0,032.9,026.7,025.4,0000.0,0009.42,0003.48,0002.83
2024-05-12 03:33:00,SystemResetWarning,0825.3,5.00,000.00,024.9,024.5,000.0,032.9,026.8,025.4,0000.0,0009.73,0003.54,0002.84
2024-05-12 03:34:00,SystemResetWarning,0825.2,5.01,000.00,024.9,024.6,000.0,033.0,026.8,025.4,0000.0,0009.77,0003.57,0002.88
2024-05-12 03:35:00,SystemResetWarning,0825.2,4.99,000.00,025.0,024.6,000.0,033.0,026.8,025.3,0000.0,0009.62,0003.58,0002.91
2024-05-12 03:36:00,SystemResetWarning,0825.2,4.99,000.00,025.0,024.7,000.0,033.1,026.9,025.3,0000.0,0008.69,0003.57,0002.93
2024-05-12 03:37:00,SystemResetWarning,0825.2,4.98,000.00,025.0,024.2,000.0,033.1,026.6,025.3,0000.0,0008.01,0003.61,0002.95
2024-05-12 03:38:00,SystemResetWarning,0825.2,5.01,000.00,024.6,022.0,000.0,033.2,025.5,025.7,0000.0,0008.09,0003.64,0002.95
2024-05-12 03:39:00,SystemResetWarning,0825.3,5.02,000.00,024.3,021.5,000.0,033.2,025.1,026.1,0000.0,0008.46,0003.64,0002.93
2024-05-12 03:40:00,SystemResetWarning,0825.3,4.99,000.00,024.2,021.8,000.0,033.0,025.2,026.2,0000.0,0008.21,0003.65,0002.92
2024-05-12 03:41:00,SystemResetWarning,0825.3,5.01,000.00,024.2,022.2,000.0,032.9,025.5,026.1,0000.0,0008.18,0003.63,0002.91
2024-05-12 03:42:00,SystemResetWarning,0825.2,5.00,000.00,024.2,022.5,000.0,032.8,025.7,026.0,0000.0,0008.51,0003.64,0002.91
2024-05-12 03:43:00,SystemResetWarning,0825.2,5.00,000.00,024.3,022.8,000.0,032.8,025.9,025.9,0000.0,0008.43,0003.64,0002.91
2024-05-12 03:44:00,SystemResetWarning,0825.3,5.00,000.00,024.3,023.1,000.0,032.7,026.0,025.8,0000.0,0008.13,0003.58,0002.88
2024-05-12 03:45:00,SystemResetWarning,0825.2,4.99,000.00,024.3,023.3,000.0,032.7,026.1,025.7,0000.0,0008.28,0003.55,0002.85
2024-05-12 03:46:00,SystemResetWarning,0825.3,4.99,000.00,024.4,023.5,000.0,032.7,026.2,025.6,0000.0,0008.38,0003.57,0002.82
2024-05-12 03:47:00,SystemResetWarning,0825.3,4.99,000.00,024.4,023.7,000.0,032.7,026.3,025.6,0000.0,0008.38,0003.55,0002.79
2024-05-12 03:48:00,SystemResetWarning,0825.3,5.00,000.00,024.5,023.8,000.0,032.7,026.3,025.5,0000.0,0008.43,0003.54,0002.77
2024-05-12 03:49:00,SystemResetWarning,0825.2,5.00,000.00,024.5,024.0,000.0,032.8,026.4,025.4,0000.0,0008.24,0003.51,0002.75
2024-05-12 03:50:00,SystemResetWarning,0825.3,5.00,000.00,024.6,024.1,000.0,032.8,026.4,025.3,0000.0,0007.57,0003.53,0002.75
2024-05-12 03:51:00,SystemResetWarning,0825.3,5.01,000.00,024.6,024.2,000.0,032.8,026.5,025.2,0000.0,0007.45,0003.52,0002.73
2024-05-12 03:52:00,SystemResetWarning,0825.3,5.01,000.00,024.7,024.2,000.0,032.8,026.6,025.2,0000.0,0007.53,0003.54,0002.73
2024-05-12 03:53:00,SystemResetWarning,0825.3,4.99,000.00,024.7,024.3,000.0,032.9,026.6,025.1,0000.0,0007.33,0003.52,0002.70
2024-05-12 03:54:00,SystemResetWarning,0825.3,5.00,000.00,024.8,024.4,000.0,032.9,026.6,025.0,0000.0,0007.05,0003.48,0002.67
2024-05-12 03:55:00,SystemResetWarning,0825.3,4.99,000.00,024.8,024.4,000.0,032.9,026.7,024.9,0000.0,0006.92,0003.45,0002.65
2024-05-12 03:56:00,SystemResetWarning,0825.4,4.99,000.00,024.9,024.5,000.0,033.0,026.7,024.8,0000.0,0006.65,0003.43,0002.65
2024-05-12 03:57:00,SystemResetWarning,0825.4,5.00,000.00,024.9,024.5,000.0,033.0,026.8,024.8,0000.0,0007.59,0003.41,0002.65
2024-05-12 03:58:00,SystemResetWarning,0825.4,5.00,000.00,025.0,024.6,000.0,033.0,026.8,024.9,0000.0,0007.74,0003.42,0002.66
2024-05-12 03:59:00,SystemResetWarning,0825.3,5.00,000.00,025.0,024.6,000.0,033.1,026.9,024.8,0000.0,0007.84,0003.44,0002.65
